W1FL Weather Reports


time (UTC)temp
C
wind
direction
speed
KPH
gust
KPH
rain 1hr
cm
rain 24hr
cm
rain mn
cm
humidity
%
barometer
mb
20260509131541 11 241 1.6 9.7 0.00 0.00 0.00 58 1012.6
20260509130036 9 190 3.2 8.0 0.00 0.00 0.00 59 1012.8
20260509124531 8 192 0.0 6.4 0.00 0.00 0.00 69 1013.0
20260509123027 7 178 3.2 6.4 0.00 0.00 0.00 72 1013.2
20260509121523 6 142 1.6 6.4 0.00 0.00 0.00 75 1013.3
20260509120018 4 169 1.6 8.0 0.00 0.00 0.00 78 1013.4
20260509114513 3 149 1.6 4.8 0.00 0.00 0.00 83 1013.4
20260509113009 2 94 1.6 4.8 0.00 0.00 0.00 86 1013.5
20260509111504 1 185 0.0 1.6 0.00 0.00 0.00 90 1013.5
20260509110003 0 215 0.0 3.2 0.00 0.00 0.00 90 1013.5
20260509104502 0 326 0.0 0.0 0.00 0.00 0.00 92 1013.6
20260509103109 0 259 0.0 0.0 0.00 0.00 0.00 94 1013.4
20260509101627 -1 259 0.0 1.6 0.00 0.00 0.00 93 1013.3
20260509094601 -1 255 0.0 3.2 0.00 0.00 0.00 93 1013.0
20260509093058 -2 252 0.0 0.0 0.00 0.00 0.00 93 1012.8
20260509091556 -1 251 0.0 1.6 0.00 0.00 0.00 92 1012.7
20260509090058 -1 252 1.6 4.8 0.00 0.00 0.00 93 1012.7
20260509084558 -1 253 0.0 0.0 0.00 0.00 0.00 92 1012.6
20260509083101 -1 253 0.0 1.6 0.00 0.00 0.00 92 1012.8
20260509081546 -1 253 0.0 1.6 0.00 0.00 0.00 92 1012.8
20260509080049 -1 253 0.0 1.6 0.00 0.00 0.00 92 1012.8
20260509074600 -1 253 0.0 1.6 0.00 0.00 0.00 92 1012.8
20260509073058 -1 253 0.0 1.6 0.00 0.00 0.00 91 1012.9
20260509071545 -1 253 0.0 0.0 0.00 0.00 0.00 92 1012.7
20260509070041 -1 253 0.0 0.0 0.00 0.00 0.00 91 1012.7
20260509064537 -1 253 0.0 0.0 0.00 0.00 0.00 90 1012.8
20260509063048 -1 253 0.0 0.0 0.00 0.00 0.00 90 1012.7
20260509061533 0 253 0.0 0.0 0.00 0.00 0.00 89 1012.7
20260509060030 0 253 0.0 0.0 0.00 0.00 0.00 90 1012.7
20260509054529 0 252 0.0 1.6 0.00 0.00 0.00 90 1012.8
20260509053037 0 252 0.0 1.6 0.00 0.00 0.00 89 1012.7
20260509051522 0 252 0.0 0.0 0.00 0.00 0.00 88 1012.4
20260509050020 0 252 1.6 3.2 0.00 0.00 0.00 89 1012.4
20260509044517 0 252 0.0 0.0 0.00 0.00 0.00 87 1012.5
20260509043035 0 252 0.0 0.0 0.00 0.00 0.00 86 1012.4
20260509041516 0 252 0.0 0.0 0.00 0.00 0.00 85 1012.4
20260509040010 0 252 0.0 0.0 0.00 0.00 0.00 83 1012.3
20260509034507 1 252 0.0 0.0 0.00 0.00 0.00 83 1012.2
20260509033007 1 252 0.0 0.0 0.00 0.00 0.00 82 1012.1
20260509031505 1 252 0.0 0.0 0.00 0.00 0.00 82 1012.0
20260509030005 2 252 0.0 0.0 0.00 0.00 0.00 81 1011.8
20260509024503 2 252 0.0 0.0 0.00 0.00 0.00 76 1011.7
20260509023002 2 252 0.0 0.0 0.00 0.00 0.00 78 1011.7
20260509021503 3 252 0.0 0.0 0.00 0.00 0.00 77 1011.7
20260509020112 3 252 0.0 0.0 0.00 0.00 0.00 71 1011.5
20260509014558 4 252 0.0 0.0 0.00 0.00 0.00 72 1011.3
20260509013100 5 252 0.0 0.0 0.00 0.00 0.00 69 1011.2
20260509011601 6 252 0.0 1.6 0.00 0.00 0.00 68 1011.0
20260509010059 6 252 0.0 0.0 0.00 0.00 0.00 63 1010.7
20260509004552 6 252 0.0 0.0 0.00 0.00 0.00 66 1010.5
20260509003056 7 252 0.0 0.0 0.00 0.00 0.00 63 1010.3
20260509001549 7 252 0.0 0.0 0.00 0.00 0.00 59 1010.2
20260509000048 8 252 0.0 0.0 0.00 0.00 0.00 58 1010.1
20260508234547 8 252 0.0 0.0 0.00 0.00 0.00 54 1010.1
20260508233048 9 252 0.0 0.0 0.00 0.00 0.00 59 1010.0
20260508231549 9 252 0.0 3.2 0.00 0.00 0.00 51 1009.9
20260508230046 9 252 0.0 3.2 0.00 0.00 0.00 49 1009.8
20260508224552 10 310 1.6 6.4 0.00 0.00 0.00 45 1009.8
20260508223044 10 312 0.0 6.4 0.00 0.00 0.00 41 1009.8
20260508221543 10 338 1.6 8.0 0.00 0.00 0.00 43 1009.8
20260508220047 10 217 1.6 8.0 0.00 0.00 0.00 45 1009.8
20260508214545 9 201 1.6 12.9 0.00 0.00 0.00 44 1009.8
20260508213041 10 308 6.4 19.3 0.00 0.00 0.00 43 1009.6
20260508211540 10 236 8.0 20.9 0.00 0.00 0.00 45 1009.6
20260508210040 10 234 1.6 12.9 0.00 0.00 0.00 45 1009.5
20260508204539 10 328 4.8 16.1 0.00 0.00 0.00 46 1009.5
20260508203040 10 229 4.8 16.1 0.00 0.00 0.00 45 1009.5
20260508201537 10 306 6.4 19.3 0.00 0.00 0.00 44 1009.3
20260508200035 10 211 4.8 14.5 0.00 0.00 0.00 47 1009.5
20260508194532 10 170 3.2 12.9 0.00 0.00 0.00 47 1009.4
20260508193030 9 236 3.2 12.9 0.00 0.00 0.00 47 1009.5
20260508191532 9 321 6.4 16.1 0.00 0.00 0.00 47 1009.4
20260508190029 9 242 11.3 20.9 0.00 0.00 0.00 48 1009.4
20260508184527 9 257 4.8 14.5 0.00 0.00 0.00 47 1009.4
20260508183027 9 182 8.0 17.7 0.00 0.00 0.00 50 1009.4
20260508181535 8 229 9.7 20.9 0.00 0.00 0.00 49 1009.7
20260508180024 8 263 4.8 16.1 0.00 0.00 0.00 51 1009.8
20260508174522 8 289 3.2 11.3 0.00 0.00 0.00 49 1009.7
20260508173022 8 273 4.8 14.5 0.00 0.00 0.00 48 1009.6
20260508171525 8 261 6.4 12.9 0.00 0.00 0.00 50 1009.5
20260508170021 8 268 3.2 12.9 0.00 0.00 0.00 53 1009.5
20260508164521 7 266 3.2 12.9 0.00 0.00 0.00 55 1009.6
20260508163020 8 246 6.4 17.7 0.00 0.00 0.00 54 1009.6
20260508161532 8 332 6.4 12.9 0.00 0.00 0.00 49 1009.3
20260508160018 8 198 3.2 12.9 0.00 0.00 0.00 52 1009.2
20260508154521 8 250 9.7 19.3 0.00 0.00 0.00 55 1009.3
20260508153031 8 190 6.4 16.1 0.00 0.00 0.00 55 1009.3
20260508151513 8 302 9.7 17.7 0.00 0.00 0.00 57 1009.5
20260508150012 7 190 3.2 12.9 0.00 0.00 0.00 59 1009.4
20260508144510 7 236 3.2 12.9 0.00 0.00 0.00 62 1009.6
20260508143006 7 240 3.2 12.9 0.00 0.00 0.00 61 1009.6
20260508141506 6 192 3.2 14.5 0.00 0.00 0.00 65 1009.7
20260508140002 6 281 6.4 14.5 0.00 0.00 0.00 66 1009.7
20260508134558 6 243 4.8 17.7 0.00 0.00 0.00 68 1009.7
20260508133103 6 234 0.0 12.9 0.00 0.00 0.00 69 1009.6